Location: *
(51.0333°S, 178.4667°E)
Time: 00:04:26
(UTC+00:00)

Cosmos 1666 - Pass Details

Date: 15 November 2019
Orbit: 498 x 522 km, 82.5° (Epoch: 05 December)

Event Time Altitude Azimuth Distance (km) Brightness Sun altitude
Exits shadow 10:13:48 42° 22° (NNE) 740 3.0 -17.3°
Maximum altitude 10:14:53 63° 83° (E) 576 2.7 -17.4°
Drops below altitude 10° 10:18:40 10° 164° (SSE) 1,747 6.1 -17.6°
Sets 10:20:49 0° 167° (SSE) 2,643 7.2 -17.8°
